Time,TemperatureF,DewpointF,PressureIn,WindDirection,WindDirectionDegrees,WindSpeedMPH,WindSpeedGustMPH,Humidity,HourlyPrecipIn,Conditions,Clouds,dailyrainin,SoftwareType,DateUTC
2013-01-23 00:00:00,4.0,-4.0,-100.00,NNE,28,14.0,29.0,69,0.00,,,0.00,,2013-01-23 09:00:00,
2013-01-23 00:33:00,4.0,-4.0,-100.00,NNE,28,14.0,29.0,69,0.00,,,0.00,,2013-01-23 09:33:00,
2013-01-23 00:43:00,4.0,-4.0,-100.00,NNE,28,14.0,29.0,69,0.00,,,0.00,,2013-01-23 09:43:00,
2013-01-23 00:53:00,4.0,-4.0,-100.00,NNE,28,14.0,29.0,69,0.00,,,0.00,,2013-01-23 09:53:00,
2013-01-23 01:00:00,3.0,-5.0,-100.00,NE,40,12.0,26.0,69,0.00,,,0.00,,2013-01-23 10:00:00,
2013-01-23 01:33:00,3.0,-5.0,-100.00,NE,40,12.0,26.0,69,0.00,,,0.00,,2013-01-23 10:33:00,
2013-01-23 01:43:00,3.0,-5.0,-100.00,NE,40,12.0,26.0,69,0.00,,,0.00,,2013-01-23 10:43:00,
2013-01-23 01:53:00,3.0,-5.0,-100.00,NE,40,12.0,26.0,69,0.00,,,0.00,,2013-01-23 10:53:00,
2013-01-23 02:00:00,3.0,-5.0,-100.00,NNE,32,13.0,28.0,69,0.00,,,0.00,,2013-01-23 11:00:00,
2013-01-23 02:34:00,3.0,-5.0,-100.00,NNE,32,13.0,28.0,69,0.00,,,0.00,,2013-01-23 11:34:00,
2013-01-23 02:43:00,3.0,-5.0,-100.00,NNE,32,13.0,28.0,69,0.00,,,0.00,,2013-01-23 11:43:00,
2013-01-23 02:53:00,3.0,-5.0,-100.00,NNE,32,13.0,28.0,69,0.00,,,0.00,,2013-01-23 11:53:00,
2013-01-23 03:00:00,3.0,-5.0,-100.00,NNE,29,12.0,26.0,69,0.00,,,0.00,,2013-01-23 12:00:00,
2013-01-23 03:33:00,3.0,-5.0,-100.00,NNE,29,12.0,26.0,69,0.00,,,0.00,,2013-01-23 12:33:00,
2013-01-23 03:43:00,3.0,-5.0,-100.00,NNE,29,12.0,26.0,69,0.00,,,0.00,,2013-01-23 12:43:00,
2013-01-23 03:53:00,3.0,-5.0,-100.00,NNE,29,12.0,26.0,69,0.00,,,0.00,,2013-01-23 12:53:00,
2013-01-23 04:00:00,3.0,-5.0,-100.00,NNE,33,11.0,26.0,70,0.00,,,0.00,,2013-01-23 13:00:00,
2013-01-23 04:33:00,3.0,-5.0,-100.00,NNE,33,11.0,26.0,70,0.00,,,0.00,,2013-01-23 13:33:00,
2013-01-23 04:43:00,3.0,-5.0,-100.00,NNE,33,11.0,26.0,70,0.00,,,0.00,,2013-01-23 13:43:00,
2013-01-23 04:53:00,3.0,-5.0,-100.00,NNE,33,11.0,26.0,70,0.00,,,0.00,,2013-01-23 13:53:00,
2013-01-23 05:00:00,2.0,-6.0,-100.00,NE,36,11.0,23.0,69,0.00,,,-99.99,,2013-01-23 14:00:00,
2013-01-23 05:33:00,2.0,-6.0,-100.00,NE,36,11.0,23.0,69,0.00,,,-99.99,,2013-01-23 14:33:00,
2013-01-23 05:43:00,2.0,-6.0,-100.00,NE,36,11.0,23.0,69,0.00,,,-99.99,,2013-01-23 14:43:00,
2013-01-23 05:53:00,2.0,-6.0,-100.00,NE,36,11.0,23.0,69,0.00,,,-99.99,,2013-01-23 14:53:00,
2013-01-23 06:00:00,2.0,-6.0,-100.00,NE,35,8.0,22.0,69,0.00,,,0.00,,2013-01-23 15:00:00,
2013-01-23 06:33:00,2.0,-6.0,-100.00,NE,35,8.0,22.0,69,0.00,,,0.00,,2013-01-23 15:33:00,
2013-01-23 06:43:00,2.0,-6.0,-100.00,NE,35,8.0,22.0,69,0.00,,,0.00,,2013-01-23 15:43:00,
2013-01-23 06:53:00,2.0,-6.0,-100.00,NE,35,8.0,22.0,69,0.00,,,0.00,,2013-01-23 15:53:00,
2013-01-23 07:00:00,3.0,-5.0,-100.00,NNE,31,11.0,22.0,67,0.00,,,0.00,,2013-01-23 16:00:00,
2013-01-23 07:53:00,3.0,-5.0,-100.00,NNE,31,11.0,22.0,67,0.00,,,0.00,,2013-01-23 16:53:00,
2013-01-23 08:00:00,1.0,-7.0,-100.00,NE,54,7.0,19.0,69,0.00,,,0.00,,2013-01-23 17:00:00,
2013-01-23 08:34:00,1.0,-7.0,-100.00,NE,54,7.0,19.0,69,0.00,,,0.00,,2013-01-23 17:34:00,
2013-01-23 08:43:00,1.0,-7.0,-100.00,NE,54,7.0,19.0,69,0.00,,,0.00,,2013-01-23 17:43:00,
2013-01-23 08:53:00,1.0,-7.0,-100.00,NE,54,7.0,19.0,69,0.00,,,0.00,,2013-01-23 17:53:00,
2013-01-23 09:00:00,1.0,-8.0,-100.00,NNE,31,12.0,28.0,65,0.00,,,0.00,,2013-01-23 18:00:00,
2013-01-23 09:44:00,1.0,-8.0,-100.00,NNE,31,12.0,28.0,65,0.00,,,0.00,,2013-01-23 18:44:00,
2013-01-23 09:53:00,1.0,-8.0,-100.00,NNE,31,12.0,28.0,65,0.00,,,0.00,,2013-01-23 18:53:00,
2013-01-23 10:00:00,0.0,-9.0,-100.00,NNE,28,13.0,27.0,64,0.00,,,0.00,,2013-01-23 19:00:00,
2013-01-23 10:33:00,0.0,-9.0,-100.00,NNE,28,13.0,27.0,64,0.00,,,0.00,,2013-01-23 19:33:00,
2013-01-23 10:43:00,0.0,-9.0,-100.00,NNE,28,13.0,27.0,64,0.00,,,0.00,,2013-01-23 19:43:00,
2013-01-23 10:53:00,0.0,-9.0,-100.00,NNE,28,13.0,27.0,64,0.00,,,0.00,,2013-01-23 19:53:00,
2013-01-23 11:00:00,1.0,-9.0,-100.00,NNE,23,14.0,28.0,62,0.00,,,0.00,,2013-01-23 20:00:00,
2013-01-23 11:33:00,1.0,-9.0,-100.00,NNE,23,14.0,28.0,62,0.00,,,0.00,,2013-01-23 20:33:00,
2013-01-23 11:43:00,1.0,-9.0,-100.00,NNE,23,14.0,28.0,62,0.00,,,0.00,,2013-01-23 20:43:00,
2013-01-23 11:53:00,1.0,-9.0,-100.00,NNE,23,14.0,28.0,62,0.00,,,0.00,,2013-01-23 20:53:00,
2013-01-23 12:00:00,1.0,-9.0,-100.00,NNE,20,13.0,30.0,61,0.00,,,0.00,,2013-01-23 21:00:00,
2013-01-23 12:43:00,1.0,-9.0,-100.00,NNE,20,13.0,30.0,61,0.00,,,0.00,,2013-01-23 21:43:00,
2013-01-23 12:53:00,1.0,-9.0,-100.00,NNE,20,13.0,30.0,61,0.00,,,0.00,,2013-01-23 21:53:00,
2013-01-23 13:00:00,0.0,-11.0,-100.00,NNE,21,12.0,25.0,59,0.00,,,0.00,,2013-01-23 22:00:00,
2013-01-23 13:33:00,0.0,-11.0,-100.00,NNE,21,12.0,25.0,59,0.00,,,0.00,,2013-01-23 22:33:00,
2013-01-23 13:43:00,0.0,-11.0,-100.00,NNE,21,12.0,25.0,59,0.00,,,0.00,,2013-01-23 22:43:00,
2013-01-23 13:53:00,0.0,-11.0,-100.00,NNE,21,12.0,25.0,59,0.00,,,0.00,,2013-01-23 22:53:00,
2013-01-23 14:00:00,-2.0,-13.0,-100.00,NNE,14,12.0,27.0,59,0.00,,,0.00,,2013-01-23 23:00:00,
2013-01-23 14:33:00,-2.0,-13.0,-100.00,NNE,14,12.0,27.0,59,0.00,,,0.00,,2013-01-23 23:33:00,
2013-01-23 14:43:00,-2.0,-13.0,-100.00,NNE,14,12.0,27.0,59,0.00,,,0.00,,2013-01-23 23:43:00,
2013-01-23 14:53:00,-2.0,-13.0,-100.00,NNE,14,12.0,27.0,59,0.00,,,0.00,,2013-01-23 23:53:00,
2013-01-23 15:00:00,-2.0,-13.0,-100.00,NNE,22,14.0,25.0,57,0.00,,,0.00,,2013-01-24 00:00:00,
2013-01-23 15:33:00,-2.0,-13.0,-100.00,NNE,22,14.0,25.0,57,0.00,,,0.00,,2013-01-24 00:33:00,
2013-01-23 15:43:00,-2.0,-13.0,-100.00,NNE,22,14.0,25.0,57,0.00,,,0.00,,2013-01-24 00:43:00,
2013-01-23 15:53:00,-2.0,-13.0,-100.00,NNE,22,14.0,25.0,57,0.00,,,0.00,,2013-01-24 00:53:00,
2013-01-23 16:00:00,-2.0,-13.0,-100.00,NNE,22,12.0,26.0,58,0.00,,,-99.99,,2013-01-24 01:00:00,
2013-01-23 16:33:00,-2.0,-13.0,-100.00,NNE,22,12.0,26.0,58,0.00,,,-99.99,,2013-01-24 01:33:00,
2013-01-23 16:43:00,-2.0,-13.0,-100.00,NNE,22,12.0,26.0,58,0.00,,,-99.99,,2013-01-24 01:43:00,
2013-01-23 16:52:00,-2.0,-13.0,-100.00,NNE,22,12.0,26.0,58,0.00,,,-99.99,,2013-01-24 01:52:00,
2013-01-23 17:00:00,-2.0,-12.0,-100.00,NE,48,10.0,27.0,60,0.00,,,0.00,,2013-01-24 02:00:00,
2013-01-23 17:33:00,-2.0,-12.0,-100.00,NE,48,10.0,27.0,60,0.00,,,0.00,,2013-01-24 02:33:00,
2013-01-23 17:42:00,-2.0,-12.0,-100.00,NE,48,10.0,27.0,60,0.00,,,0.00,,2013-01-24 02:42:00,
2013-01-23 17:52:00,-2.0,-12.0,-100.00,NE,48,10.0,27.0,60,0.00,,,0.00,,2013-01-24 02:52:00,
2013-01-23 18:00:00,-2.0,-12.0,-100.00,NE,41,9.0,25.0,60,0.00,,,0.00,,2013-01-24 03:00:00,
2013-01-23 18:33:00,-2.0,-12.0,-100.00,NE,41,9.0,25.0,60,0.00,,,0.00,,2013-01-24 03:33:00,
2013-01-23 18:43:00,-2.0,-12.0,-100.00,NE,41,9.0,25.0,60,0.00,,,0.00,,2013-01-24 03:43:00,
2013-01-23 18:52:00,-2.0,-12.0,-100.00,NE,41,9.0,25.0,60,0.00,,,0.00,,2013-01-24 03:52:00,
2013-01-23 19:00:00,-3.0,-14.0,-100.00,NNE,32,12.0,28.0,58,0.00,,,0.00,,2013-01-24 04:00:00,
2013-01-23 19:33:00,-3.0,-14.0,-100.00,NNE,32,12.0,28.0,58,0.00,,,0.00,,2013-01-24 04:33:00,
2013-01-23 19:43:00,-3.0,-14.0,-100.00,NNE,32,12.0,28.0,58,0.00,,,0.00,,2013-01-24 04:43:00,
2013-01-23 19:53:00,-3.0,-14.0,-100.00,NNE,32,12.0,28.0,58,0.00,,,0.00,,2013-01-24 04:53:00,
2013-01-23 20:00:00,-4.0,-15.0,-100.00,NE,34,10.0,26.0,59,0.00,,,0.00,,2013-01-24 05:00:00,
2013-01-23 20:33:00,-4.0,-15.0,-100.00,NE,34,10.0,26.0,59,0.00,,,0.00,,2013-01-24 05:33:00,
2013-01-23 20:43:00,-4.0,-15.0,-100.00,NE,34,10.0,26.0,59,0.00,,,0.00,,2013-01-24 05:43:00,
2013-01-23 20:53:00,-4.0,-15.0,-100.00,NE,34,10.0,26.0,59,0.00,,,0.00,,2013-01-24 05:53:00,
2013-01-23 21:00:00,-4.0,-15.0,-100.00,NNE,24,10.0,22.0,58,0.00,,,0.00,,2013-01-24 06:00:00,
2013-01-23 21:33:00,-4.0,-15.0,-100.00,NNE,24,10.0,22.0,58,0.00,,,0.00,,2013-01-24 06:33:00,
2013-01-23 21:42:00,-4.0,-15.0,-100.00,NNE,24,10.0,22.0,58,0.00,,,0.00,,2013-01-24 06:42:00,
2013-01-23 21:52:00,-4.0,-15.0,-100.00,NNE,24,10.0,22.0,58,0.00,,,0.00,,2013-01-24 06:52:00,
2013-01-23 22:00:00,-4.0,-15.0,-100.00,NNE,30,11.0,27.0,58,0.00,,,0.00,,2013-01-24 07:00:00,
2013-01-23 22:33:00,-4.0,-15.0,-100.00,NNE,30,11.0,27.0,58,0.00,,,0.00,,2013-01-24 07:33:00,
2013-01-23 22:43:00,-4.0,-15.0,-100.00,NNE,30,11.0,27.0,58,0.00,,,0.00,,2013-01-24 07:43:00,
2013-01-23 22:53:00,-4.0,-15.0,-100.00,NNE,30,11.0,27.0,58,0.00,,,0.00,,2013-01-24 07:53:00,
2013-01-23 23:00:00,-5.0,-16.0,-100.00,NNE,22,9.0,23.0,57,0.00,,,0.00,,2013-01-24 08:00:00,
2013-01-23 23:33:00,-5.0,-16.0,-100.00,NNE,22,9.0,23.0,57,0.00,,,0.00,,2013-01-24 08:33:00,
2013-01-23 23:43:00,-5.0,-16.0,-100.00,NNE,22,9.0,23.0,57,0.00,,,0.00,,2013-01-24 08:43:00,
2013-01-23 23:53:00,-5.0,-16.0,-100.00,NNE,22,9.0,23.0,57,0.00,,,0.00,,2013-01-24 08:53:00,